User: anonymous   Login
Location: Houston
(29.7630°N, 95.3630°W)
Time: 01:20:01
(UTC-06:00)
Language:

ISS - Orbit

View from above orbital plane
View from above orbital plane
View from above satellite
View from above satellite

Ground track
Ground track

The orbit data is extracted from the following two-line orbital elements,

1 25544U 98067A   15062.08493135  .00015468  00000-0  23286-3 0  9995
2 25544 051.6447 253.9711 0007942 064.1703 032.7920 15.54987044931520
Epoch (UTC): 03 March 2015 02:02:18
Eccentricity: 0.0007942
inclination: 51.6447°
perigee height: 397 km
apogee height: 407 km
right ascension of ascending node: 253.9711°
argument of perigee: 64.1703°
revolutions per day: 15.54987044
mean anomaly at epoch: 32.7920°
orbit number at epoch: 93152

The dashed part of the orbit path shows where the satellite is in the earth's shadow,  

DLR